This is the latest recevied weather packets stored in our database for station/object KC1IUC-15. If no packets are shown the sender has not sent any weather packets the latest 10 day(s).
| Time | Temp. | Humidity | Pressure | Rain* | Wind** | Luminosity | Snow |
|---|---|---|---|---|---|---|---|
| 1777909503 | 20° C | 29% | 1011 hPa | 0 mm | - | 686 W/m² | - |
| 1777909203 | 19.44° C | 30% | 1011 hPa | 0 mm | - | 678 W/m² | - |
| 1777908903 | 20° C | 29% | 1011 hPa | 0 mm | - | 677 W/m² | - |
| 1777908603 | 19.44° C | 29% | 1011.3 hPa | 0 mm | - | 673 W/m² | - |
| 1777908303 | 19.44° C | 29% | 1011.3 hPa | 0 mm | - | 673 W/m² | - |
| 1777908003 | 18.89° C | 31% | 1011 hPa | 0 mm | - | 585 W/m² | - |
| 1777907703 | 18.89° C | 30% | 1011.3 hPa | 0 mm | - | 591 W/m² | - |
| 1777907403 | 19.44° C | 29% | 1011.3 hPa | 0 mm | - | 560 W/m² | - |
| 1777907103 | 19.44° C | 30% | 1011.3 hPa | 0 mm | - | 673 W/m² | - |
| 1777906803 | 19.44° C | 29% | 1011.6 hPa | 0 mm | - | 640 W/m² | - |
| 1777906503 | 20° C | 29% | 1011.6 hPa | 0 mm | - | 643 W/m² | - |
| 1777906203 | 18.89° C | 32% | 1011.6 hPa | 0 mm | - | 633 W/m² | - |
| 1777905903 | 18.89° C | 31% | 1011.6 hPa | 0 mm | - | 579 W/m² | - |
| 1777905603 | 18.89° C | 29% | 1011.6 hPa | 0 mm | - | 610 W/m² | - |
| 1777905303 | 18.89° C | 31% | 1011.6 hPa | 0 mm | - | 595 W/m² | - |
| 1777905003 | 18.33° C | 32% | 1012 hPa | 0 mm | - | 586 W/m² | - |
| 1777904703 | 18.33° C | 31% | 1011.6 hPa | 0 mm | - | 573 W/m² | - |
| 1777904403 | 17.78° C | 32% | 1011.6 hPa | 0 mm | - | 564 W/m² | - |
| 1777904103 | 18.33° C | 32% | 1011.6 hPa | 0 mm | - | 549 W/m² | - |
| 1777903803 | 17.78° C | 31% | 1011.6 hPa | 0 mm | - | 537 W/m² | - |
| 1777903504 | 17.78° C | 32% | 1011.6 hPa | 0 mm | - | 521 W/m² | - |
| 1777903203 | 18.33° C | 32% | 1011.6 hPa | 0 mm | - | 503 W/m² | - |
| 1777902903 | 18.33° C | 34% | 1012 hPa | 0 mm | - | 485 W/m² | - |
| 1777902603 | 17.78° C | 34% | 1012 hPa | 0 mm | - | 467 W/m² | - |
| 1777902303 | 16.67° C | 35% | 1012 hPa | 0 mm | - | 451 W/m² | - |
* Rain latest hour (hover to see other rain measurements)
** Current wind speed in m/s (hover to see current wind gust speed)